Temperature
22 21 21 22 27 29 29 29 29 28 28 27 26 27 27 27 26 24 21 21 20 20 20 20 20 20 20 20 20 19 19 19 19 19 19 19 19 19 19 19 19 19 18 18 18 18 18 18 18
21 21 22 25 29 29 28 29 28 28 27 26 26 26 26 25 23 22 20 20 20 20 20 20 20 20 20 20 19 19 19 19 19 19 19 19 19 19 18 18 18 18 18 18 18 18 18 18 18
21 21 24 28 29 29 28 28 28 27 26 26 26 25 25 23 22 21 20 20 20 20 19 20 20 20 19 19 19 19 19 19 19 19 19 19 18 18 18 18 18 18 18 18 18 18 17 17 17
21 23 26 29 28 28 28 28 28 27 26 26 26 25 23 21 21 20 20 20 20 20 19 20 20 19 19 19 19 19 19 19 19 19 18 18 18 18 18 18 18 18 18 17 17 17 17 17 17
22 26 29 28 28 28 28 28 27 28 27 26 26 25 23 20 20 20 20 20 20 19 19 19 19 19 19 19 19 19 19 19 19 18 18 18 18 18 18 18 17 17 17 17 17 17 17 17 17
26 28 29 28 28 28 28 27 27 27 27 26 25 25 23 20 20 20 20 20 19 19 19 19 19 19 19 19 18 18 18 18 18 18 18 18 18 17 17 17 17 17 17 17 17 17 17 17 17
27 29 29 29 28 28 28 27 27 27 26 25 25 25 23 20 20 20 20 20 19 19 19 18 19 19 18 18 18 18 18 18 18 18 18 18 17 17 17 17 17 17 17 17 17 17 17 17 17
26 29 29 29 28 28 27 26 25 26 25 24 24 25 23 20 19 19 19 19 19 19 18 18 18 18 18 18 18 18 18 18 18 17 17 17 17 17 17 17 17 17 16 16 16 16 16 16 16
25 28 28 28 28 28 27 26 25 24 24 23 23 22 21 20 19 19 19 19 19 18 18 18 18 18 17 17 17 17 17 17 17 17 17 17 16 16 16 16 16 16 16 16 16 16 16 16 16
27 28 28 29 29 28 27 26 25 25 25 24 22 21 20 19 19 20 19 19 19 18 18 18 18 17 17 17 17 17 16 16 16 16 16 16 16 16 16 16 16 16 16 16 16 16 16 16 16
28 28 28 28 27 27 27 26 25 26 26 24 23 21 20 20 20 20 19 19 19 18 18 18 17 17 17 17 16 16 16 16 16 16 16 16 16 16 15 15 16 16 16 15 15 15 15 15 15
28 28 27 27 27 26 26 26 25 25 24 23 22 21 20 20 20 19 19 19 18 18 17 17 17 17 16 16 16 16 16 16 16 15 16 15 15 15 15 15 15 15 15 15 15 15 15 15 15
28 28 27 26 26 26 25 25 25 24 23 22 21 20 20 20 19 18 18 18 18 17 17 17 17 16 16 16 16 16 15 16 16 15 15 15 15 15 15 15 15 15 15 15 15 15 15 15 15
28 27 26 26 26 25 26 25 25 23 22 22 21 21 20 19 19 18 18 18 17 17 17 16 16 16 16 16 16 15 15 15 15 15 15 15 15 15 15 15 15 15 15 15 15 15 15 15 15
27 27 27 27 26 26 26 25 25 23 22 22 21 20 20 19 19 18 18 17 17 16 16 16 16 16 16 16 15 15 15 15 15 15 15 15 15 15 15 14 14 14 14 14 14 14 14 14 15
28 28 28 27 27 26 26 25 24 22 22 22 21 20 19 19 18 18 17 17 16 16 16 16 16 15 15 15 15 15 15 15 15 15 15 15 14 14 14 14 14 14 14 14 14 14 14 14 14
28 28 28 27 27 27 26 25 24 22 22 22 21 20 20 19 18 18 17 17 16 16 15 15 15 15 15 15 15 15 15 14 14 15 15 14 14 14 14 14 14 14 14 14 14 14 14 14 14
28 28 28 27 27 26 26 25 24 22 22 22 21 20 20 19 18 17 17 16 16 15 15 15 15 15 15 15 14 14 14 14 14 14 14 14 14 14 14 14 14 14 14 14 14 14 13 14 14
28 28 27 27 26 26 25 24 24 23 22 22 21 20 20 19 18 17 17 16 15 15 15 15 15 15 15 14 14 14 14 14 14 14 14 14 14 13 13 13 13 13 13 13 13 13 14 14 13
27 27 27 26 26 25 25 24 24 23 22 22 21 20 20 19 18 17 16 16 15 15 15 15 15 15 14 14 14 14 14 14 14 14 14 13 13 13 13 13 13 13 13 13 13 13 13 13 13
27 27 27 26 25 25 25 24 24 23 22 21 21 20 19 19 18 17 16 16 16 15 15 15 14 14 14 14 14 14 14 14 14 13 13 13 13 13 13 13 13 13 13 13 13 13 13 13 13
27 27 27 26 26 26 25 25 24 24 23 22 21 20 19 19 18 17 16 16 15 15 15 14 14 14 14 14 14 13 13 14 13 13 13 13 13 13 13 13 13 13 13 13 13 13 13 13 13
27 27 26 26 26 26 26 25 25 24 23 23 22 20 19 18 18 17 17 16 15 15 15 14 14 14 14 14 13 13 13 13 13 13 13 13 13 13 13 13 13 13 13 13 13 13 13 13 13
26 26 26 26 27 25 25 25 24 24 23 23 22 20 19 19 18 17 17 16 15 15 14 14 14 14 14 13 13 13 13 13 13 13 13 13 13 13 13 13 12 12 12 12 12 12 12 12 12
26 26 26 26 25 25 25 24 24 23 23 23 22 20 19 18 18 17 16 15 15 15 14 14 14 14 13 13 13 13 13 13 13 13 13 13 13 13 12 12 12 12 12 12 12 12 12 12 12
26 26 25 25 25 26 24 24 24 23 22 21 21 20 19 18 18 17 16 15 15 14 14 14 14 13 13 13 13 13 13 13 13 13 12 12 12 12 12 12 12 12 12 12 12 12 12 12 12
26 26 26 25 25 24 25 24 23 22 22 21 21 20 19 18 17 17 16 15 15 14 14 14 13 13 13 13 13 13 13 13 12 12 12 12 12 12 12 12 12 12 12 12 12 12 12 12 12
26 26 25 25 24 24 24 24 24 22 22 22 21 20 19 18 17 16 16 15 14 14 14 14 13 13 13 13 13 13 13 12 12 12 12 12 12 12 12 12 12 12 12 12 12 12 12 12 12
25 25 25 25 25 24 23 23 23 22 22 21 21 20 19 18 17 16 16 15 15 14 14 14 13 13 13 13 13 12 12 12 12 12 12 12 12 12 12 12 12 12 12 12 12 12 12 11 11
25 25 24 24 24 24 23 23 23 22 22 21 21 19 19 18 17 16 16 15 15 14 14 14 13 13 13 13 13 12 12 12 12 12 12 12 12 12 12 12 12 12 12 12 11 11 11 11 11
Wind_Speed
8 7 6 5 5 2 4 5 3 4 3 3 3 2 3 4 4 4 4 6 7 9 12 13 11 10 10 11 11 11 11 11 11 11 11 11 11 11 11 10 10 10 10 9 9 9 8 8 8
6 5 5 4 3 3 5 4 4 5 4 2 2 2 3 4 5 4 4 6 8 10 12 12 12 10 11 11 11 11 11 11 10 10 10 10 10 10 10 9 9 9 8 8 8 8 8 8 8
6 6 4 3 0 2 5 4 4 5 3 1 2 3 2 3 3 3 3 7 9 10 11 13 11 10 11 11 10 10 10 10 10 9 9 9 9 9 8 8 8 8 8 8 8 8 8 8 8
5 5 4 3 3 3 3 3 2 2 3 2 2 3 3 4 3 3 5 8 9 10 11 13 11 10 10 10 10 9 9 9 9 8 8 8 8 8 8 8 8 7 7 7 7 7 7 8 8
5 5 5 4 4 3 2 2 1 1 2 2 1 2 4 3 4 6 6 8 9 9 9 12 11 10 10 9 9 9 8 8 8 8 7 7 7 7 7 7 7 7 7 7 6 6 6 6 7
5 5 4 3 4 4 3 1 1 1 3 2 1 2 3 4 4 5 7 7 8 8 8 11 12 10 9 8 8 7 7 7 7 7 7 7 6 6 6 6 6 6 6 6 6 6 6 6 6
4 3 2 2 3 3 2 1 0 0 2 3 1 2 4 4 4 5 7 7 8 8 8 8 9 10 10 9 8 6 6 5 6 6 6 6 6 6 6 6 6 6 5 5 5 5 5 6 6
4 3 3 2 2 2 2 2 1 1 2 3 2 1 2 4 5 6 7 7 7 7 6 6 7 7 7 7 8 7 6 6 5 5 5 6 7 7 7 7 6 6 5 5 5 5 5 6 6
4 5 2 0 1 1 2 2 1 1 3 3 3 4 5 8 8 8 7 6 6 6 5 5 5 5 5 5 6 7 7 7 7 7 6 7 6 6 7 5 5 6 5 5 5 5 6 7 8
4 4 0 1 1 1 1 1 2 2 2 3 4 5 8 9 8 7 7 6 5 5 4 4 3 3 3 3 4 4 4 5 5 4 5 5 4 5 5 6 6 6 6 7 7 7 8 10 8
4 3 1 1 1 0 1 2 1 3 1 1 2 5 7 8 6 5 5 4 4 3 3 2 2 2 2 2 2 2 2 3 4 4 4 4 4 4 4 4 5 6 8 7 7 8 7 6 5
4 2 3 2 1 2 2 2 2 1 1 2 4 7 7 6 5 4 3 3 3 2 2 1 1 1 0 0 1 2 2 2 2 3 4 3 3 3 3 3 3 4 4 4 5 5 5 6 6
5 2 1 1 1 2 3 3 2 1 2 3 6 7 6 6 5 4 3 3 2 1 1 1 0 1 1 1 2 2 2 2 2 3 3 3 3 2 2 2 2 3 3 4 4 4 4 5 6
2 1 1 2 3 3 4 3 2 2 3 5 6 7 6 6 5 4 3 2 2 1 0 0 1 1 1 2 2 2 2 2 3 3 3 4 3 2 2 3 3 3 3 3 4 4 4 4 4
4 4 4 3 3 4 4 3 2 3 4 5 6 6 5 5 4 3 2 1 1 1 1 1 2 1 1 2 2 2 2 3 2 2 3 4 4 3 3 3 3 3 3 3 4 4 4 4 5
7 7 5 3 2 3 6 3 4 4 5 5 5 5 4 4 3 3 2 1 1 1 1 1 1 1 1 1 2 2 2 2 2 2 3 3 3 4 3 3 3 3 3 3 3 4 4 4 5
8 6 4 2 2 2 5 3 5 5 4 4 4 4 4 3 2 2 2 1 1 1 1 1 1 1 1 1 1 2 2 2 2 2 2 2 3 4 4 3 3 4 3 3 3 3 3 4 4
5 5 4 3 2 3 4 3 4 5 4 3 3 3 2 2 2 2 1 1 1 1 1 1 1 0 1 1 1 1 1 2 2 2 1 3 3 4 4 4 3 4 3 3 3 3 3 4 3
5 6 5 2 1 3 3 4 4 4 4 3 2 2 1 1 2 2 1 1 1 1 0 0 1 1 1 1 1 1 1 2 2 2 2 3 3 3 4 4 3 4 3 4 4 4 4 4 3
6 7 4 2 2 3 3 3 3 3 3 3 2 2 1 1 1 1 1 1 0 1 0 1 1 1 2 1 2 2 2 3 3 2 2 3 3 4 4 4 4 4 4 4 4 4 3 3 3
7 7 6 4 3 5 5 6 6 5 4 3 2 2 1 1 1 1 0 1 0 0 0 1 1 2 2 2 2 1 2 3 2 2 3 3 4 4 5 5 5 4 5 4 4 4 5 4 4
6 4 6 6 7 5 7 6 5 6 5 4 3 2 2 1 2 1 1 1 1 1 1 0 1 1 2 2 2 2 3 3 3 3 3 3 4 4 5 5 5 5 4 4 5 4 5 5 4
4 3 5 7 8 7 7 7 3 5 4 4 3 2 2 2 2 2 2 1 1 1 1 0 1 1 1 2 2 3 3 2 3 3 3 3 3 3 4 4 4 4 4 3 4 4 5 5 5
2 3 5 7 8 8 5 6 3 2 2 2 2 1 2 2 2 2 1 1 1 1 1 0 1 1 1 2 2 3 3 3 3 4 3 3 2 2 3 3 3 3 3 3 3 4 4 4 5
5 6 6 7 7 4 2 4 1 2 1 1 1 0 1 1 2 1 1 1 1 1 1 1 1 2 2 2 2 3 3 3 4 4 3 3 3 2 2 3 3 3 3 4 4 4 4 4 5
5 7 6 7 6 3 2 3 1 2 1 0 0 1 1 1 1 1 1 1 1 1 1 1 1 2 2 2 2 2 3 3 2 3 3 3 3 2 2 3 3 3 3 4 4 4 4 4 5
5 5 5 7 8 7 3 1 2 2 1 1 1 1 1 0 0 1 1 1 1 1 1 1 1 2 2 2 2 3 3 3 3 2 3 3 3 3 2 3 3 3 4 4 4 3 4 4 4
4 3 4 6 6 7 4 4 2 0 1 1 1 1 0 0 0 1 1 1 1 1 1 1 2 2 3 2 2 2 2 2 3 3 3 3 3 3 3 3 3 3 3 3 4 4 3 3 3
3 4 5 6 6 7 6 2 3 1 2 2 2 1 1 0 1 1 1 1 0 0 0 1 2 2 2 2 2 3 3 3 3 3 3 3 3 3 3 3 3 3 3 3 3 3 3 3 3
3 4 5 6 5 6 7 3 4 2 1 1 1 1 1 0 1 1 1 0 0 0 1 1 1 2 2 2 3 3 3 3 3 3 3 2 2 3 3 3 2 3 2 2 3 3 3 3 3
Wind_Direction
201 205 219 235 232 176 100 91 80 84 75 48 38 33 61 41 28 67 85 126 139 141 139 144 140 145 147 147 146 145 144 145 148 152 154 157 160 161 164 167 170 174 174 176 176 181 186 182 182
197 203 228 240 250 144 104 84 83 62 66 69 83 89 84 68 56 85 109 132 148 142 141 140 136 141 143 144 143 142 142 143 146 151 154 156 159 162 166 170 172 175 178 180 182 188 191 191 191
202 226 249 241 322 80 94 82 73 74 76 81 100 74 53 58 64 83 106 146 149 143 139 131 136 136 137 139 140 141 141 141 143 149 154 156 161 166 168 171 174 177 182 185 187 191 196 199 200
209 216 226 220 126 73 69 89 82 104 91 64 109 101 90 47 42 83 127 149 147 142 138 132 137 134 133 137 140 142 142 143 145 149 155 160 163 168 173 178 184 185 187 189 193 197 201 205 208
234 236 210 172 138 111 100 78 82 102 79 66 94 96 89 63 67 102 130 142 143 139 136 134 135 134 134 136 139 142 144 147 151 155 160 163 167 173 177 182 188 191 193 195 198 202 204 209 214
223 229 215 164 138 138 126 113 149 100 85 85 100 121 92 96 98 118 130 137 138 137 136 135 140 138 137 140 141 144 146 150 153 156 159 164 169 174 179 186 187 190 195 200 204 210 211 211 212
252 240 217 175 151 151 121 133 296 24 63 51 60 127 117 113 107 122 128 131 132 134 135 139 147 145 147 146 141 138 139 146 151 156 159 165 174 181 183 188 192 196 200 201 203 210 214 214 215
269 243 207 187 179 143 130 143 32 351 56 46 34 74 112 121 126 126 123 126 132 132 133 138 145 146 153 151 147 150 155 154 157 163 170 180 184 187 190 197 193 196 198 202 209 221 221 218 220
252 241 214 160 258 116 147 177 135 92 100 85 65 52 94 130 138 135 130 130 133 136 137 144 149 150 157 160 156 169 172 170 181 181 179 200 204 200 196 197 184 196 200 209 217 232 231 226 216
233 246 308 4 322 27 127 181 169 177 147 125 100 87 119 139 147 144 143 143 142 144 143 144 147 156 163 159 161 182 187 178 198 198 202 213 211 215 216 179 192 206 213 215 218 233 231 237 227
222 252 314 331 360 286 156 133 163 207 204 183 143 132 140 147 148 147 144 147 143 147 138 136 141 153 170 155 163 175 189 185 204 203 213 220 220 215 218 207 201 212 218 223 215 223 230 232 235
221 255 287 293 305 246 211 160 136 144 52 68 116 134 142 146 144 143 143 143 144 152 147 148 143 133 187 159 170 196 201 198 215 200 223 224 222 225 228 231 233 229 229 230 232 232 235 240 237
222 228 300 275 194 169 158 160 140 101 96 110 123 132 133 134 132 126 131 144 147 152 161 158 197 199 222 229 240 222 224 227 216 223 215 229 230 230 225 231 236 242 236 227 234 238 237 240 238
238 246 219 165 149 158 152 158 178 138 132 129 129 128 127 126 130 128 132 142 146 150 202 245 243 223 225 227 241 243 236 226 236 231 230 235 239 235 232 228 235 244 247 246 245 243 238 240 245
223 219 193 176 183 180 180 182 180 138 143 134 129 127 123 123 126 118 113 123 138 160 180 224 222 199 229 243 253 253 247 242 249 241 235 234 235 230 237 241 240 248 250 245 243 245 245 241 242
220 226 222 174 199 197 231 211 129 138 148 145 141 137 130 123 115 105 104 96 101 165 173 229 241 197 234 248 263 274 269 262 255 252 241 234 237 235 241 242 244 249 249 250 248 252 253 254 256
214 232 245 191 209 216 230 207 133 148 157 158 160 155 146 136 119 101 94 91 97 154 186 212 261 244 247 260 271 278 275 272 262 259 260 247 237 233 240 245 251 246 248 251 256 258 266 261 265
241 252 256 256 199 228 225 196 153 160 174 168 163 160 156 148 139 126 116 87 98 150 181 194 217 280 261 251 259 264 252 262 262 261 255 249 241 237 249 241 240 248 249 248 244 255 259 268 270
271 265 266 262 171 240 224 197 179 168 177 182 186 182 177 174 144 145 165 168 151 137 120 231 278 292 270 251 252 263 261 260 256 253 245 247 254 251 254 256 241 248 249 251 248 253 251 257 266
245 254 251 200 184 243 217 212 191 184 192 200 210 204 209 212 154 155 154 144 183 136 81 277 277 286 273 266 268 272 276 269 263 260 242 246 250 252 250 252 254 251 253 244 243 247 261 266 261
237 255 256 239 199 204 213 214 203 193 195 196 216 227 218 236 209 170 177 226 301 3 313 295 297 282 283 285 274 273 256 256 268 266 251 247 251 250 256 252 258 260 257 249 248 247 250 261 262
250 251 250 226 229 226 226 259 188 191 195 200 213 227 246 245 230 229 235 255 270 286 309 311 277 275 274 257 263 266 273 285 295 279 267 262 251 251 251 250 250 255 255 256 255 248 254 254 260
278 262 240 234 247 253 228 261 188 182 215 217 211 215 237 247 239 229 227 240 247 242 260 254 279 280 275 261 254 256 263 281 296 297 284 274 260 255 254 248 247 250 257 258 263 269 260 256 260
224 217 220 232 243 249 246 264 241 191 244 223 182 194 228 245 243 237 230 244 273 271 263 298 302 309 289 263 265 255 259 272 280 281 282 279 277 269 267 262 254 250 254 255 259 262 259 258 261
230 249 242 233 233 247 157 257 301 87 24 316 292 200 214 236 246 267 297 297 288 249 294 317 292 292 287 273 267 265 266 266 263 273 273 279 282 277 276 277 265 261 253 253 257 255 261 253 254
240 256 275 284 285 292 208 255 93 93 98 73 230 165 176 218 241 279 285 276 251 230 246 263 279 288 281 272 269 274 273 273 281 280 283 275 281 288 283 273 274 274 265 260 256 257 258 258 258
242 253 292 279 277 276 257 236 169 165 197 214 212 189 187 207 277 293 306 311 298 253 263 270 272 282 275 265 257 257 260 277 296 288 275 285 289 286 276 270 269 269 266 266 267 272 267 265 260
280 266 254 265 278 277 260 255 281 247 295 279 263 238 164 84 22 351 331 319 307 278 281 307 291 282 280 278 274 265 264 270 281 286 294 294 294 295 290 285 283 281 274 264 266 268 271 268 267
219 232 263 271 283 287 289 314 45 4 314 301 276 232 186 143 340 328 318 334 341 5 308 280 278 273 275 280 276 277 274 270 272 277 284 290 294 299 295 288 283 285 288 281 274 278 273 267 266
260 269 261 268 271 268 284 300 83 36 352 303 275 199 173 191 268 289 340 10 1 333 301 287 277 271 273 266 258 263 270 268 269 276 286 293 295 295 287 278 279 285 291 293 276 273 278 273 268
Height
1508 1509 1510 1511 1504 1496 1497 1497 1495 1496 1498 1501 1502 1501 1501 1502 1505 1514 1515 1514 1515 1516 1516 1517 1519 1520 1522 1523 1524 1525 1526 1527 1528 1529 1530 1531 1532 1533 1534 1535 1536 1537 1538 1539 1540 1541 1542 1543 1544
1509 1510 1512 1508 1497 1500 1500 1495 1497 1498 1502 1504 1504 1504 1504 1507 1511 1513 1513 1514 1515 1517 1517 1518 1519 1521 1522 1524 1525 1526 1527 1528 1528 1529 1530 1531 1532 1533 1534 1535 1536 1537 1538 1539 1540 1540 1541 1542 1543
1510 1510 1510 1500 1497 1499 1500 1497 1498 1501 1504 1504 1504 1506 1508 1511 1513 1514 1514 1514 1516 1518 1519 1518 1520 1521 1523 1524 1525 1526 1527 1528 1529 1529 1530 1531 1532 1533 1534 1534 1535 1536 1537 1538 1539 1540 1540 1542 1543
1511 1511 1507 1499 1500 1497 1497 1498 1500 1501 1504 1505 1505 1507 1511 1514 1514 1514 1514 1515 1517 1519 1520 1519 1520 1522 1523 1524 1525 1526 1527 1528 1528 1529 1530 1530 1531 1532 1533 1534 1534 1535 1536 1537 1538 1539 1540 1540 1541
1511 1507 1498 1497 1498 1498 1499 1501 1502 1501 1503 1505 1506 1507 1511 1514 1514 1514 1514 1516 1518 1519 1520 1520 1520 1522 1523 1524 1525 1526 1527 1527 1528 1528 1529 1530 1530 1531 1532 1533 1533 1534 1535 1536 1536 1537 1538 1539 1539
1509 1501 1497 1498 1498 1498 1500 1503 1503 1502 1504 1506 1507 1508 1512 1514 1514 1515 1516 1517 1519 1520 1521 1520 1521 1522 1523 1524 1525 1526 1526 1527 1527 1528 1528 1529 1529 1530 1531 1531 1532 1532 1533 1534 1535 1536 1536 1537 1537
1505 1497 1496 1495 1498 1499 1501 1503 1503 1503 1505 1507 1508 1509 1512 1514 1515 1515 1516 1518 1519 1520 1521 1521 1522 1522 1523 1524 1524 1525 1525 1526 1526 1527 1527 1528 1528 1529 1529 1530 1530 1531 1532 1532 1533 1533 1534 1535 1535
1505 1498 1495 1494 1497 1498 1501 1504 1506 1505 1507 1509 1510 1509 1512 1514 1515 1516 1517 1518 1520 1521 1522 1522 1523 1523 1524 1524 1524 1524 1525 1525 1525 1526 1526 1526 1527 1527 1527 1528 1529 1529 1530 1530 1531 1531 1532 1532 1533
1506 1499 1496 1495 1496 1497 1501 1503 1506 1508 1509 1510 1511 1512 1514 1514 1515 1516 1517 1519 1520 1521 1522 1522 1523 1523 1523 1524 1523 1523 1524 1524 1524 1525 1524 1525 1526 1527 1527 1526 1527 1527 1528 1528 1528 1529 1529 1530 1530
1503 1498 1496 1495 1496 1497 1500 1502 1505 1506 1507 1509 1511 1513 1514 1514 1515 1516 1517 1519 1520 1521 1522 1522 1523 1523 1523 1523 1523 1523 1523 1523 1523 1523 1523 1524 1524 1525 1525 1524 1525 1525 1525 1525 1526 1526 1527 1528 1529
1500 1497 1496 1497 1498 1500 1501 1503 1505 1504 1505 1508 1510 1512 1513 1514 1515 1517 1518 1519 1519 1520 1521 1522 1522 1522 1522 1522 1522 1522 1522 1522 1522 1522 1522 1522 1522 1523 1523 1523 1523 1523 1523 1524 1524 1524 1525 1526 1526
1500 1499 1499 1499 1500 1500 1501 1503 1505 1506 1508 1510 1511 1512 1514 1514 1515 1516 1518 1519 1519 1519 1520 1521 1521 1521 1521 1521 1521 1521 1521 1521 1521 1520 1520 1521 1521 1521 1521 1521 1521 1521 1521 1521 1522 1522 1522 1523 1523
1498 1499 1500 1500 1500 1501 1502 1503 1505 1507 1509 1510 1511 1512 1514 1514 1515 1516 1517 1518 1518 1519 1519 1519 1519 1519 1519 1519 1519 1519 1519 1520 1519 1519 1518 1518 1519 1519 1519 1518 1518 1519 1519 1519 1519 1520 1520 1520 1521
1497 1498 1499 1499 1499 1501 1501 1503 1505 1507 1509 1511 1511 1512 1513 1514 1515 1516 1516 1517 1517 1518 1518 1518 1518 1518 1518 1517 1517 1517 1518 1517 1517 1517 1517 1516 1517 1516 1516 1516 1516 1516 1516 1516 1517 1517 1517 1517 1518
1498 1496 1495 1496 1497 1499 1499 1502 1504 1507 1509 1510 1511 1513 1513 1514 1515 1515 1516 1516 1516 1516 1516 1516 1516 1516 1516 1516 1516 1516 1516 1515 1515 1515 1514 1514 1514 1514 1514 1514 1513 1514 1514 1513 1514 1514 1514 1515 1515
1493 1492 1492 1493 1495 1498 1500 1501 1504 1508 1509 1510 1511 1512 1513 1514 1515 1515 1515 1515 1515 1515 1515 1515 1515 1514 1514 1514 1514 1514 1514 1513 1513 1512 1512 1512 1511 1511 1511 1511 1511 1511 1512 1512 1512 1512 1512 1512 1512
1488 1490 1491 1492 1493 1495 1496 1499 1504 1508 1509 1509 1510 1511 1512 1513 1514 1514 1514 1514 1514 1514 1513 1513 1513 1513 1512 1512 1512 1512 1511 1511 1511 1510 1510 1509 1509 1509 1509 1509 1509 1509 1509 1509 1510 1510 1509 1509 1509
1489 1488 1490 1491 1492 1493 1495 1498 1502 1506 1507 1508 1509 1510 1511 1512 1513 1514 1514 1513 1513 1513 1512 1512 1511 1511 1510 1511 1510 1510 1509 1509 1509 1508 1507 1507 1507 1507 1507 1507 1506 1507 1507 1507 1507 1506 1506 1507 1506
1485 1487 1489 1490 1492 1494 1495 1498 1500 1504 1506 1507 1508 1509 1510 1511 1513 1513 1513 1513 1512 1511 1510 1510 1510 1509 1508 1509 1508 1508 1508 1507 1506 1506 1505 1505 1505 1505 1504 1505 1504 1504 1505 1504 1505 1504 1504 1505 1504
1486 1489 1489 1490 1493 1494 1495 1497 1498 1502 1503 1506 1507 1508 1509 1510 1511 1512 1512 1511 1511 1510 1509 1509 1508 1508 1507 1507 1506 1506 1505 1505 1505 1504 1503 1503 1502 1502 1503 1502 1502 1502 1502 1502 1502 1502 1502 1502 1502
1486 1487 1487 1490 1492 1493 1495 1498 1497 1499 1502 1504 1506 1507 1507 1508 1509 1510 1510 1509 1509 1509 1508 1507 1506 1506 1505 1505 1505 1504 1504 1503 1503 1502 1502 1501 1500 1500 1500 1500 1500 1500 1500 1500 1500 1499 1500 1500 1500
1486 1483 1485 1488 1491 1489 1492 1496 1494 1495 1498 1501 1503 1505 1506 1507 1508 1508 1508 1508 1508 1507 1507 1506 1505 1504 1503 1502 1502 1502 1502 1502 1501 1500 1500 1499 1498 1498 1498 1497 1497 1497 1498 1497 1497 1497 1497 1497 1497
1483 1482 1484 1485 1486 1488 1488 1492 1490 1492 1495 1497 1500 1503 1505 1506 1506 1507 1507 1507 1506 1506 1505 1504 1503 1502 1501 1501 1501 1500 1501 1500 1499 1498 1497 1497 1496 1496 1496 1495 1495 1495 1495 1495 1495 1494 1494 1495 1495
1483 1484 1484 1483 1481 1493 1486 1491 1492 1489 1492 1494 1498 1501 1503 1504 1505 1505 1506 1506 1505 1504 1504 1503 1501 1500 1500 1499 1499 1499 1498 1498 1498 1497 1496 1496 1495 1494 1494 1494 1493 1493 1493 1492 1492 1491 1492 1492 1492
1483 1486 1490 1491 1490 1488 1485 1490 1492 1489 1491 1494 1496 1500 1502 1503 1503 1503 1504 1504 1503 1503 1502 1501 1500 1499 1498 1498 1498 1497 1497 1496 1496 1496 1495 1494 1494 1493 1492 1492 1491 1491 1490 1490 1490 1489 1489 1489 1489
1482 1483 1494 1499 1491 1485 1487 1490 1489 1490 1494 1496 1497 1499 1501 1501 1502 1502 1502 1502 1501 1501 1500 1500 1499 1498 1497 1497 1496 1496 1495 1495 1495 1494 1493 1493 1492 1491 1490 1490 1489 1489 1489 1488 1488 1487 1487 1486 1486
1481 1480 1479 1486 1485 1491 1487 1488 1490 1491 1493 1495 1496 1498 1499 1500 1501 1501 1501 1501 1500 1499 1499 1498 1497 1496 1496 1495 1495 1494 1494 1493 1493 1492 1491 1491 1490 1490 1489 1488 1487 1487 1487 1486 1485 1485 1484 1484 1483
1480 1480 1483 1486 1496 1495 1488 1488 1487 1489 1491 1492 1494 1496 1498 1499 1500 1500 1500 1499 1498 1498 1497 1497 1496 1495 1495 1494 1494 1494 1493 1492 1491 1491 1490 1489 1488 1488 1487 1486 1486 1485 1484 1484 1483 1482 1481 1481 1480
1484 1484 1483 1481 1484 1493 1495 1492 1484 1487 1490 1492 1493 1495 1497 1498 1499 1499 1498 1498 1497 1497 1496 1495 1495 1494 1494 1493 1493 1492 1491 1491 1490 1490 1489 1488 1487 1486 1485 1485 1484 1483 1482 1481 1480 1480 1479 1479 1479
1480 1482 1484 1490 1489 1487 1491 1493 1485 1488 1490 1492 1493 1495 1497 1498 1498 1498 1498 1497 1496 1495 1495 1494 1494 1493 1493 1492 1491 1490 1490 1489 1489 1488 1487 1486 1485 1485 1484 1483 1483 1482 1481 1479 1479 1478 1478 1477 1477